EW8163 Weather Reports


Display with metric or nautical units.
time (UTC)temp
F
wind
direction
speed
MPH
gust
MPH
rain 1hr
in
rain 24hr
in
rain mn
in
humidity
%
barometer
mb
20260509041020 51 270 0.0 0.0 0.00 0.00 0.00 87 1021.5
20260509040934 51 270 0.0 0.0 0.00 0.00 0.00 87 1021.7
20260509035919 51 270 0.0 0.0 0.00 0.00 0.00 86 1021.4
20260509034919 52 270 0.0 0.0 0.00 0.00 0.00 84 1021.5
20260509034017 53 270 0.0 0.0 0.00 0.00 0.00 85 1021.3
20260509033921 53 270 0.0 0.0 0.00 0.00 0.00 85 1021.2
20260509032919 53 270 0.0 0.0 0.00 0.00 0.00 83 1021.3
20260509032819 53 270 0.0 0.0 0.00 0.00 0.00 83 1021.3
20260509031819 54 270 0.0 0.0 0.00 0.00 0.00 81 1021.1
20260509030819 55 270 0.0 0.0 0.00 0.00 0.00 81 1021.1
20260509025819 56 270 0.0 0.0 0.00 0.00 0.00 79 1020.9
20260509024819 58 270 0.0 0.0 0.00 0.00 0.00 77 1020.9
20260509024717 58 270 0.0 0.0 0.00 0.00 0.00 78 1020.9
20260509024618 58 270 0.0 0.0 0.00 0.00 0.00 78 1020.8
20260509023619 59 270 0.0 0.0 0.00 0.00 0.00 74 1020.8
20260509021719 62 270 0.0 0.0 0.00 0.00 0.00 71 1020.6
20260509021620 62 270 0.0 0.0 0.00 0.00 0.00 71 1020.6
20260509020718 63 270 0.0 0.0 0.00 0.00 0.00 69 1020.4
20260509015719 64 22 0.0 0.0 0.00 0.00 0.00 66 1020.4
20260509014818 65 180 0.0 0.0 0.00 0.00 0.00 63 1020.4
20260509013819 66 225 0.0 0.0 0.00 0.00 0.00 59 1020.6
20260509012819 69 225 0.0 2.0 0.00 0.00 0.00 54 1020.2
20260509011819 70 112 0.0 0.0 0.00 0.00 0.00 54 1020.1
20260509010819 71 93 0.0 2.0 0.00 0.00 0.00 51 1020.2
20260509004820 72 180 0.0 0.0 0.00 0.00 0.00 50 1020.5
20260509003918 72 3 0.0 3.0 0.00 0.00 0.00 50 1020.4
20260509002820 72 327 1.0 3.0 0.00 0.00 0.00 50 1020.6
20260509001820 72 307 0.0 2.0 0.00 0.00 0.00 50 1020.6
20260509000918 73 195 2.0 5.0 0.00 0.00 0.00 48 1020.6
20260508235918 73 316 2.0 7.0 0.00 0.00 0.00 47 1020.7
20260508234917 73 224 0.0 3.0 0.00 0.00 0.00 47 1020.6
20260508233920 73 306 1.0 4.0 0.00 0.00 0.00 45 1020.7
20260508233818 73 337 2.0 4.0 0.00 0.00 0.00 45 1020.7
20260508232819 74 320 3.0 6.0 0.00 0.00 0.00 43 1020.6
20260508231819 73 180 1.0 5.0 0.00 0.00 0.00 43 1020.8
20260508230819 73 223 1.0 4.0 0.00 0.00 0.00 47 1021.0
20260508225817 72 204 5.0 8.0 0.00 0.00 0.00 50 1021.1
20260508224835 72 168 3.0 6.0 0.00 0.00 0.00 50 1021.3
20260508223817 72 239 1.0 6.0 0.00 0.00 0.00 47 1021.4
20260508222819 72 214 3.0 10.0 0.00 0.00 0.00 45 1021.4
20260508221918 73 300 3.0 4.0 0.00 0.00 0.00 42 1021.4
20260508215919 74 319 2.0 9.0 0.00 0.00 0.00 38 1021.3
20260508214920 73 225 1.0 5.0 0.00 0.00 0.00 39 1021.3
20260508214018 74 237 1.0 8.0 0.00 0.00 0.00 40 1021.4
20260508213037 75 155 3.0 6.0 0.00 0.00 0.00 41 1021.5
20260508212118 74 341 0.0 1.0 0.00 0.00 0.00 40 1021.4
20260508211216 73 208 1.0 4.0 0.00 0.00 0.00 39 1021.4
20260508210218 73 269 0.0 2.0 0.00 0.00 0.00 42 1021.6
20260508205219 73 264 2.0 4.0 0.00 0.00 0.00 41 1021.7
20260508204317 72 261 0.0 1.0 0.00 0.00 0.00 42 1021.9
20260508203318 73 330 2.0 6.0 0.00 0.00 0.00 41 1021.9
20260508203218 73 333 3.0 8.0 0.00 0.00 0.00 42 1021.8
20260508202218 73 229 2.0 5.0 0.00 0.00 0.00 39 1021.9
20260508201220 73 22 1.0 3.0 0.00 0.00 0.00 42 1022.0
20260508201117 73 22 1.0 3.0 0.00 0.00 0.00 42 1021.9
20260508201018 72 29 0.0 1.0 0.00 0.00 0.00 42 1021.9
20260508200019 72 270 0.0 2.0 0.00 0.00 0.00 40 1021.9
20260508195020 72 260 2.0 4.0 0.00 0.00 0.00 42 1022.0
20260508194018 71 297 2.0 3.0 0.00 0.00 0.00 43 1022.0
20260508193017 72 300 0.0 1.0 0.00 0.00 0.00 39 1022.3
20260508192018 71 191 1.0 3.0 0.00 0.00 0.00 38 1022.3
20260508190019 71 344 3.0 5.0 0.00 0.00 0.00 38 1022.5
20260508185018 70 221 0.0 3.0 0.00 0.00 0.00 38 1022.5
20260508184116 69 42 3.0 8.0 0.00 0.00 0.00 42 1022.5
20260508184019 69 22 1.0 6.0 0.00 0.00 0.00 43 1022.5
20260508183018 69 359 3.0 7.0 0.00 0.00 0.00 47 1022.3
20260508182017 69 49 0.0 3.0 0.00 0.00 0.00 45 1022.3
20260508181017 70 42 0.0 1.0 0.00 0.00 0.00 44 1022.4
20260508180018 70 20 1.0 5.0 0.00 0.00 0.00 43 1022.5
20260508175018 69 59 0.0 2.0 0.00 0.00 0.00 45 1022.3
20260508174018 69 54 2.0 3.0 0.00 0.00 0.00 44 1022.3
20260508173018 70 110 0.0 3.0 0.00 0.00 0.00 44 1022.3
20260508172019 70 45 0.0 0.0 0.00 0.00 0.00 43 1022.5
20260508171919 69 56 1.0 4.0 0.00 0.00 0.00 44 1022.5
20260508170919 69 25 1.0 3.0 0.00 0.00 0.00 42 1022.3
20260508165919 69 179 0.0 0.0 0.00 0.00 0.00 43 1022.5
20260508165018 69 5 1.0 4.0 0.00 0.00 0.00 45 1022.5
20260508164019 69 11 2.0 5.0 0.00 0.00 0.00 46 1022.5
20260508163117 68 68 1.0 3.0 0.00 0.00 0.00 45 1022.7
20260508162119 67 315 0.0 2.0 0.00 0.00 0.00 50 1022.7
20260508161216 67 90 0.0 1.0 0.00 0.00 0.00 53 1022.8
20260508155219 63 270 0.0 0.0 0.00 0.00 0.00 66 1022.8
20260508155120 62 270 0.0 0.0 0.00 0.00 0.00 67 1022.9
20260508154134 59 270 0.0 0.0 0.00 0.00 0.00 73 1022.9
20260508153219 59 270 0.0 0.0 0.00 0.00 0.00 77 1023.0
20260508152217 56 270 0.0 0.0 0.00 0.00 0.00 82 1022.9
20260508151117 53 270 0.0 0.0 0.00 0.00 0.00 82 1023.1
20260508150117 52 270 0.0 0.0 0.00 0.00 0.00 88 1023.0
20260508145216 49 270 0.0 0.0 0.00 0.00 0.00 93 1023.2
20260508144217 46 270 0.0 0.0 0.00 0.00 0.00 98 1023.1
20260508144118 46 270 0.0 0.0 0.00 0.00 0.00 98 1022.9
20260508143118 43 270 0.0 0.0 0.00 0.00 0.00 98 1022.8
20260508142118 42 270 0.0 0.0 0.00 0.00 0.00 99 1022.9
20260508142016 42 270 0.0 0.0 0.00 0.00 0.00 99 1022.8
20260508141116 43 270 0.0 0.0 0.00 0.00 0.00 99 1022.7
20260508140135 40 270 0.0 0.0 0.00 0.00 0.00 98 1022.5
20260508135218 38 270 0.0 0.0 0.00 0.00 0.00 98 1022.3
20260508135116 38 270 0.0 0.0 0.00 0.00 0.00 98 1022.3
20260508132118 37 270 0.0 0.0 0.00 0.00 0.00 97 1022.3
20260508131117 37 270 0.0 0.0 0.00 0.00 0.00 98 1022.1
20260508131018 37 270 0.0 0.0 0.00 0.00 0.00 97 1022.1
20260508130016 38 270 0.0 0.0 0.00 0.00 0.00 97 1022.1
20260508125018 38 270 0.0 0.0 0.00 0.00 0.00 98 1022.1
20260508124917 38 270 0.0 0.0 0.00 0.00 0.00 98 1021.9
20260508123917 38 270 0.0 0.0 0.00 0.00 0.00 98 1021.9
20260508123817 38 270 0.0 0.0 0.00 0.00 0.00 98 1022.0
20260508122817 38 270 0.0 0.0 0.00 0.00 0.00 98 1022.0
20260508121818 38 270 0.0 0.0 0.00 0.00 0.00 98 1022.0
20260508120819 38 270 0.0 0.0 0.00 0.00 0.00 97 1022.0
20260508115818 38 270 0.0 0.0 0.00 0.00 0.00 97 1021.9
20260508114818 38 270 0.0 0.0 0.00 0.00 0.00 98 1022.0
20260508113818 39 270 0.0 0.0 0.00 0.00 0.00 98 1022.0
20260508113719 39 270 0.0 0.0 0.00 0.00 0.00 97 1022.0
20260508112720 39 270 0.0 0.0 0.00 0.00 0.00 96 1022.0
20260508111817 39 270 0.0 0.0 0.00 0.00 0.00 98 1022.0
20260508110819 39 270 0.0 0.0 0.00 0.00 0.00 97 1021.9
20260508105817 39 270 0.0 0.0 0.00 0.00 0.00 97 1022.0
20260508104817 39 270 0.0 0.0 0.00 0.00 0.00 97 1022.0
20260508103819 40 270 0.0 0.0 0.00 0.00 0.00 97 1022.1
20260508102817 40 270 0.0 0.0 0.00 0.00 0.00 96 1022.1
20260508101916 40 270 0.0 0.0 0.00 0.00 0.00 97 1022.0
20260508100920 40 270 0.0 0.0 0.00 0.00 0.00 97 1022.1
20260508093917 40 270 0.0 0.0 0.00 0.00 0.00 96 1022.2
20260508092917 40 270 0.0 0.0 0.00 0.00 0.00 96 1022.1
20260508091916 41 270 0.0 0.0 0.00 0.00 0.00 96 1022.3
20260508091818 41 270 0.0 0.0 0.00 0.00 0.00 96 1022.3
20260508091718 41 270 0.0 0.0 0.00 0.00 0.00 96 1022.3
20260508090718 41 270 0.0 0.0 0.00 0.00 0.00 96 1022.3
20260508085718 41 270 0.0 0.0 0.00 0.00 0.00 96 1022.2
20260508084717 41 270 0.0 0.0 0.00 0.00 0.00 96 1022.3
20260508083716 41 270 0.0 0.0 0.00 0.00 0.00 97 1022.5
20260508083620 41 270 0.0 0.0 0.00 0.00 0.00 97 1022.5
20260508082717 41 270 0.0 0.0 0.00 0.00 0.00 95 1022.5
20260508082616 41 270 0.0 0.0 0.00 0.00 0.00 96 1022.7
20260508081616 42 270 0.0 0.0 0.00 0.00 0.00 96 1022.6
20260508081516 42 270 0.0 0.0 0.00 0.00 0.00 96 1022.7
20260508080517 42 270 0.0 0.0 0.00 0.00 0.00 96 1022.9
20260508075519 42 270 0.0 0.0 0.00 0.00 0.00 96 1022.8
20260508074616 42 270 0.0 0.0 0.00 0.00 0.00 95 1022.9
20260508073618 42 270 0.0 0.0 0.00 0.00 0.00 94 1022.8
20260508072616 43 270 0.0 0.0 0.00 0.00 0.00 96 1022.7
20260508071618 43 270 0.0 0.0 0.00 0.00 0.00 94 1022.8
20260508071517 43 270 0.0 0.0 0.00 0.00 0.00 94 1022.8
20260508070518 43 270 0.0 0.0 0.00 0.00 0.00 94 1022.8
20260508065531 43 270 0.0 0.0 0.00 0.00 0.00 94 1022.9
20260508064530 44 270 0.0 0.0 0.00 0.00 0.00 95 1022.9
20260508063628 44 270 0.0 0.0 0.00 0.00 0.00 94 1022.8
20260508063529 44 270 0.0 0.0 0.00 0.00 0.00 94 1022.8
20260508062528 44 270 0.0 0.0 0.00 0.00 0.00 93 1022.8
20260508060529 45 270 0.0 0.0 0.00 0.00 0.00 93 1022.9
20260508054530 46 270 0.0 0.0 0.00 0.00 0.00 93 1023.1
20260508053529 46 270 0.0 0.0 0.00 0.00 0.00 93 1023.2
20260508052627 46 270 0.0 0.0 0.00 0.00 0.00 91 1023.2
20260508051629 47 270 0.0 0.0 0.00 0.00 0.00 92 1023.3
20260508050630 47 270 0.0 0.0 0.00 0.00 0.00 90 1023.3
20260508050528 47 270 0.0 0.0 0.00 0.00 0.00 90 1023.3
20260508045627 48 270 0.0 0.0 0.00 0.00 0.00 90 1023.2
20260508044630 48 270 0.0 0.0 0.00 0.00 0.00 89 1023.3
20260508043729 48 270 0.0 0.0 0.00 0.00 0.00 89 1023.2
20260508043628 48 270 0.0 0.0 0.00 0.00 0.00 89 1023.3
20260508041728 49 270 0.0 0.0 0.00 0.00 0.00 87 1023.1